DELTA 1 DEB

Satellite information

Favourite Embed

Satellite Type and Status

DEBRISIN ORBIT

Key statistics

Satellite DELTA 1 DEB at a glance.

Uptime

18986

Days in orbit

Revolutions

≈ 12.6

Per day

Orbit

SSO

Sun Synchronous Orbit

Inclination

102.1

Latest

Satellite identification and parameters

Extended collection of information and parameters for DELTA 1 DEB.

Object identification

Identified? True

Debris? True

Object name: DELTA 1 DEB

International designator: 1973-086CD

Object number (NORAD): 7085

Object ID (CCSDS): 7085

Country: UNITED STATES OF AMERICA (US)

Current information (Y/N): Y

RCS size: SMALL

Orbital parameters

Period: 114.265 minutes

Inclination: 102.1423 deg

SMA: 7800.154 km

Apoapsis: 1498.573 km

Periapsis: 1345.464 km

RAAN: 88.7998 deg

Eccentricy: 0.00981445

Argument of periapsis: 293.0322 deg

Mean anomaly: 189.7026 deg

Mean motion: 12.60224805 rev/day

Mean motion (dot): 0.00000159 rev/day2

B* drag term: 0.0011725717 1/REarth

Two-line elements (TLE)

Creation date: Oct. 30, 2025, 3:32 a.m.

Reference frame: TEME

Reference center: EARTH

Epoch: Oct. 29, 2025, 11:11 p.m. UTC

TLE line 0: 0 DELTA 1 DEB

TLE line 1: 1 07085U 73086CD 25302.96646102 .00000159 00000-0 11726-2 0 9994

TLE line 2: 2 07085 102.1423 88.7998 0098144 293.0322 189.7026 12.60224805387136

Live tracking on map

Real-time ground track for satellite DELTA 1 DEB.

In-orbit conjunctions

A list of the most updated potential collisions computed for object DELTA 1 DEB.

Target Orbit TCA Probability of collision Miss distance Type
COSMOS 1039 LEO 2025-02-12 07:44:17 0.000115744 414.0 (m) PAYLOAD

Associated space launch

Meteorological satellite using radiometric imaging

DELTA 1 DEB was lifted into orbit during the mission ‘Delta 0300 | NOAA 3’, on board a Delta 0300 space rocket.

The launch took place on Nov. 6, 1973, 5:02 p.m. from Space Launch Complex 2W.

For more information about the launch, click the button.

Launch to space Delta 0300 | NOAA 3
Delta 0300 | NOAA 3

Agency: N/A

Status: Launch Successful

Launch date: Nov. 6, 1973, 5:02 p.m. UTC

Rocket: Delta 0300

Launch pad: Space Launch Complex 2W

Location: Vandenberg SFB, CA, USA

...

Latest news about this satellite

There are no fresh news available about this satellite. Check back as we update our databases every day.


Newsletter sign-up

Weekly statistics, charts and insights to help you stay on top of the space industry.